DW4408 Weather Reports


Display with metric or nautical units.
time (UTC)temp
F
wind
direction
speed
MPH
gust
MPH
rain 1hr
in
rain 24hr
in
rain mn
in
humidity
%
barometer
mb
20260906210033 91 143 1.0 4.0 0.00 0.00 0.00 24 1006.2
20260906204522 91 113 1.0 6.0 0.00 0.00 0.00 24 1006.3
20260906203022 91 31 1.0 8.0 0.00 0.00 0.00 24 1006.3
20260906201550 91 324 1.0 7.0 0.00 0.00 0.00 25 1006.5
20260906200022 90 49 1.0 7.0 0.00 0.00 0.00 26 1006.2
20260906194519 90 284 0.0 4.0 0.00 0.00 0.00 24 1006.4
20260906193018 90 323 1.0 8.0 0.00 0.00 0.00 24 1006.4
20260906191516 90 137 0.0 4.0 0.00 0.00 0.00 24 1006.5
20260906190016 91 20 2.0 8.0 0.00 0.00 0.00 25 1006.7
20260906184514 92 62 1.0 4.0 0.00 0.00 0.00 23 1006.9
20260906183016 92 102 0.0 5.0 0.00 0.00 0.00 22 1007.2
20260906181528 92 21 1.0 5.0 0.00 0.00 0.00 22 1007.2
20260906180007 92 92 1.0 5.0 0.00 0.00 0.00 21 1007.5
20260906174503 92 5 0.0 5.0 0.00 0.00 0.00 25 1007.7
20260906173107 91 88 0.0 3.0 0.00 0.00 0.00 24 1008.0
20260906171559 91 138 1.0 5.0 0.00 0.00 0.00 23 1008.3
20260906170051 90 71 0.0 5.0 0.00 0.00 0.00 25 1008.5
20260906164547 89 132 1.0 3.0 0.00 0.00 0.00 25 1008.6
20260906163050 88 146 0.0 6.0 0.00 0.00 0.00 27 1008.8
20260906161545 86 290 0.0 4.0 0.00 0.00 0.00 29 1008.9
20260906160034 85 92 0.0 4.0 0.00 0.00 0.00 29 1008.8
20260906154531 82 142 0.0 2.0 0.00 0.00 0.00 35 1008.7
20260906153025 79 154 1.0 3.0 0.00 0.00 0.00 36 1008.8
20260906151522 76 202 0.0 8.0 0.00 0.00 0.00 40 1009.0
20260906150023 70 107 0.0 6.0 0.00 0.00 0.00 52 1009.1
20260906144514 66 153 0.0 0.0 0.00 0.00 0.00 66 1009.4
20260906143011 64 153 0.0 0.0 0.00 0.00 0.00 68 1009.6
20260906141509 63 153 0.0 0.0 0.00 0.00 0.00 68 1009.7
20260906140016 62 153 0.0 0.0 0.00 0.00 0.00 66 1009.6
20260906134509 62 153 0.0 0.0 0.00 0.00 0.00 66 1009.5
20260906133006 61 153 0.0 0.0 0.00 0.00 0.00 66 1009.5
20260906131505 61 153 0.0 0.0 0.00 0.00 0.00 66 1009.5
20260906130002 61 153 0.0 0.0 0.00 0.00 0.00 65 1009.2
20260906124607 62 153 0.0 0.0 0.00 0.00 0.00 64 1009.2
20260906123100 62 153 0.0 0.0 0.00 0.00 0.00 64 1009.1
20260906121603 62 153 0.0 0.0 0.00 0.00 0.00 62 1009.0
20260906120054 64 152 0.0 0.0 0.00 0.00 0.00 61 1008.8
20260906114603 64 152 0.0 0.0 0.00 0.00 0.00 60 1008.9
20260906113050 65 152 0.0 0.0 0.00 0.00 0.00 58 1008.9
20260906111607 66 152 0.0 0.0 0.00 0.00 0.00 56 1008.8
20260906110049 67 152 0.0 0.0 0.00 0.00 0.00 55 1008.9
20260906104548 68 152 0.0 0.0 0.00 0.00 0.00 53 1008.9
20260906103047 68 152 0.0 0.0 0.00 0.00 0.00 53 1008.8
20260906101546 67 200 0.0 0.0 0.00 0.00 0.00 56 1008.8
20260906100045 66 200 0.0 0.0 0.00 0.00 0.00 58 1008.8
20260906094545 65 200 0.0 0.0 0.00 0.00 0.00 58 1008.8
20260906093051 66 200 0.0 0.0 0.00 0.00 0.00 58 1008.8
20260906091545 66 200 0.0 0.0 0.00 0.00 0.00 58 1008.8
20260906090144 65 200 0.0 0.0 0.00 0.00 0.00 59 1008.4
20260906084547 65 200 0.0 0.0 0.00 0.00 0.00 59 1008.5
20260906083042 66 200 0.0 0.0 0.00 0.00 0.00 59 1008.4
20260906081550 65 200 0.0 0.0 0.00 0.00 0.00 58 1008.5
20260906080041 66 200 0.0 0.0 0.00 0.00 0.00 59 1008.8
20260906074541 65 200 0.0 0.0 0.00 0.00 0.00 59 1008.9
20260906073050 66 200 0.0 0.0 0.00 0.00 0.00 59 1008.9
20260906071535 66 200 0.0 0.0 0.00 0.00 0.00 58 1008.8
20260906070039 67 200 0.0 0.0 0.00 0.00 0.00 56 1008.8
20260906064531 68 200 0.0 0.0 0.00 0.00 0.00 54 1008.7
20260906063030 68 200 0.0 0.0 0.00 0.00 0.00 55 1008.6
20260906061528 68 167 0.0 0.0 0.00 0.00 0.00 54 1008.3
20260906060024 67 124 0.0 0.0 0.00 0.00 0.00 55 1008.5
20260906054525 67 132 0.0 0.0 0.00 0.00 0.00 55 1008.8
20260906053033 67 131 0.0 0.0 0.00 0.00 0.00 54 1009.0
20260906051523 67 132 0.0 0.0 0.00 0.00 0.00 53 1009.1
20260906050023 68 131 0.0 0.0 0.00 0.00 0.00 52 1009.2
20260906044522 68 133 0.0 0.0 0.00 0.00 0.00 52 1009.2
20260906043038 68 132 0.0 0.0 0.00 0.00 0.00 50 1009.0
20260906041521 69 132 0.0 0.0 0.00 0.00 0.00 50 1008.7
20260906040024 70 140 0.0 0.0 0.00 0.00 0.00 48 1008.8
20260906034525 72 140 0.0 0.0 0.00 0.00 0.00 46 1008.9
20260906033020 73 140 0.0 0.0 0.00 0.00 0.00 45 1009.1
20260906031519 73 127 0.0 0.0 0.00 0.00 0.00 42 1009.0
20260906030021 73 127 0.0 0.0 0.00 0.00 0.00 41 1008.8
20260906024519 74 143 0.0 0.0 0.00 0.00 0.00 40 1008.7
20260906023019 75 143 0.0 0.0 0.00 0.00 0.00 38 1008.5
20260906021518 75 146 0.0 0.0 0.00 0.00 0.00 37 1008.3
20260906020017 75 157 0.0 2.0 0.00 0.00 0.00 40 1008.2
20260906014525 76 319 0.0 0.0 0.00 0.00 0.00 39 1008.0
20260906013016 77 319 0.0 0.0 0.00 0.00 0.00 38 1008.1
20260906011516 79 319 0.0 0.0 0.00 0.00 0.00 37 1008.2
20260906010016 80 319 0.0 0.0 0.00 0.00 0.00 35 1008.2
20260906004516 81 319 0.0 1.0 0.00 0.00 0.00 33 1008.2
20260906003015 81 141 0.0 0.0 0.00 0.00 0.00 34 1008.4
20260906001514 81 41 0.0 0.0 0.00 0.00 0.00 35 1008.3
20260906000014 82 347 0.0 0.0 0.00 0.00 0.00 33 1008.1
20260905234514 84 347 0.0 0.0 0.00 0.00 0.00 30 1007.8
20260905233013 85 347 0.0 1.0 0.00 0.00 0.00 25 1007.6
20260905231515 86 240 0.0 1.0 0.00 0.00 0.00 25 1007.4
20260905230014 86 163 0.0 0.0 0.00 0.00 0.00 26 1007.1
20260905224511 87 206 0.0 0.0 0.00 0.00 0.00 28 1007.2
20260905223010 87 206 0.0 0.0 0.00 0.00 0.00 24 1007.1
20260905221514 88 304 0.0 0.0 0.00 0.00 0.00 24 1007.1
20260905220007 88 235 0.0 2.0 0.00 0.00 0.00 25 1007.0
20260905214507 87 297 0.0 0.0 0.00 0.00 0.00 29 1007.1
20260905213004 87 297 0.0 0.0 0.00 0.00 0.00 28 1007.1
20260905211504 86 207 0.0 1.0 0.00 0.00 0.00 31 1007.2